Date String (YYYY-MM-DD hh:mm:ss) UTC,Instrument flags,Ambient pressure (hPa),Sample flow (lpm),Bypass flow (lpm),Sample temperature (°C),Ambient temperature (°C),ASC tube jacket temperature (°C),LED temperature (°C),Box temperature (°C),Sample RH (%),Span deviation,Mass concentration (μg/m³),Mass concentration (μg/m³),Mass concentration (μg/m³)
DateTimeUTC,F1_M11,P_M11,Q1_M11,Q2_M11,T1_M11,T2_M11,T3_M11,T4_M11,T5_M11,U1_M11,ZSPAN_M11,X0_M11,X2_M11,X1_M11
2023-01-08 02:00:00,,0830.0,5.01,0.00,24.9,22.4,00.0,34.2,26.4,09.7,0000.0,0008.73,0006.05,0005.77
2023-01-08 02:01:00,,0830.0,5.00,0.00,24.9,22.3,00.0,34.2,26.3,09.7,0000.0,0008.59,0005.87,0005.59
2023-01-08 02:02:00,,0830.0,4.99,0.00,24.8,22.2,00.0,34.1,26.3,09.7,0000.0,0008.34,0005.62,0005.35
2023-01-08 02:03:00,,0830.0,5.00,0.00,24.8,22.2,00.0,34.1,26.3,09.6,0000.0,0008.02,0005.33,0005.09
2023-01-08 02:04:00,,0830.0,5.00,0.00,24.7,22.2,00.0,34.0,26.2,09.7,0000.0,0007.90,0005.17,0004.93
2023-01-08 02:05:00,,0830.0,5.00,0.00,24.7,22.2,00.0,34.0,26.1,09.8,0000.0,0007.85,0005.09,0004.84
2023-01-08 02:06:00,,0830.0,5.01,0.00,24.6,22.2,00.0,33.9,26.1,09.9,0000.0,0007.64,0004.94,0004.70
2023-01-08 02:07:00,,0829.9,5.00,0.00,24.6,22.4,00.0,33.9,26.1,09.9,0000.0,0007.28,0004.80,0004.57
2023-01-08 02:08:00,,0830.0,5.00,0.00,24.5,22.4,00.0,33.8,26.1,09.8,0000.0,0007.16,0004.72,0004.49
2023-01-08 02:09:00,,0829.9,4.99,0.00,24.5,22.5,00.0,33.7,26.0,09.8,0000.0,0007.38,0004.64,0004.41
2023-01-08 02:10:00,,0829.9,5.00,0.00,24.5,22.5,00.0,33.7,25.9,09.7,0000.0,0008.03,0004.52,0004.32
2023-01-08 02:11:00,,0829.9,5.00,0.00,24.4,22.4,00.0,33.7,25.9,09.8,0000.0,0007.92,0004.44,0004.26
2023-01-08 02:12:00,,0829.8,4.99,0.00,24.4,22.3,00.0,33.6,25.9,10.0,0000.0,0007.79,0004.41,0004.23
2023-01-08 02:13:00,,0829.8,5.00,0.00,24.3,22.2,00.0,33.6,25.8,09.8,0000.0,0007.82,0004.43,0004.26
2023-01-08 02:14:00,,0829.9,5.00,0.00,24.3,22.3,00.0,33.5,25.7,09.5,0000.0,0007.79,0004.38,0004.21
2023-01-08 02:15:00,,0829.8,5.00,0.00,24.3,22.2,00.0,33.5,25.7,09.6,0000.0,0007.76,0004.32,0004.15
2023-01-08 02:16:00,,0829.9,5.00,0.00,24.2,22.1,00.0,33.5,25.6,09.7,0000.0,0007.84,0004.28,0004.11
2023-01-08 02:17:00,,0829.9,5.00,0.00,24.2,22.1,00.0,33.4,25.6,09.8,0000.0,0007.98,0004.25,0004.08
2023-01-08 02:18:00,,0829.9,5.00,0.00,24.1,22.1,00.0,33.4,25.6,09.8,0000.0,0007.95,0004.20,0004.03
2023-01-08 02:19:00,,0829.8,4.99,0.00,24.1,22.1,00.0,33.4,25.6,09.8,0000.0,0007.94,0004.17,0003.99
2023-01-08 02:20:00,,0829.9,5.00,0.00,24.1,22.1,00.0,33.3,25.6,10.2,0000.0,0007.75,0004.25,0004.06
2023-01-08 02:21:00,,0829.9,4.99,0.00,24.1,22.2,00.0,33.3,25.7,10.4,0000.0,0007.26,0004.42,0004.21
2023-01-08 02:22:00,,0829.9,5.00,0.00,24.1,22.2,00.0,33.3,25.7,10.7,0000.0,0007.62,0004.70,0004.46
2023-01-08 02:23:00,,0829.9,5.01,0.00,24.2,22.4,00.0,33.3,25.9,10.9,0000.0,0008.07,0005.07,0004.79
2023-01-08 02:24:00,,0829.9,4.99,0.00,24.2,22.5,00.0,33.2,25.9,11.0,0003.3,0008.47,0005.46,0005.18
2023-01-08 02:25:00,,0829.9,4.99,0.00,24.2,22.7,00.0,33.2,26.0,11.1,0004.3,0008.96,0005.96,0005.65
2023-01-08 02:26:00,,0829.9,5.00,0.00,24.2,22.8,00.0,33.2,26.0,11.0,0004.2,0009.70,0006.51,0006.19
2023-01-08 02:27:00,,0829.9,5.00,0.00,24.3,22.8,00.0,33.2,26.1,10.9,0003.9,0010.14,0007.00,0006.65
2023-01-08 02:28:00,,0829.8,5.01,0.00,24.3,22.9,00.0,33.2,26.1,10.9,0003.8,0010.60,0007.50,0007.10
2023-01-08 02:29:00,,0829.8,5.01,0.00,24.3,23.0,00.0,33.2,26.1,10.9,0003.7,0011.16,0008.01,0007.55
2023-01-08 02:30:00,,0829.8,5.00,0.00,24.3,23.0,00.0,33.2,26.2,10.8,0003.8,0011.64,0008.48,0007.99
2023-01-08 02:31:00,,0829.8,5.00,0.00,24.4,23.1,00.0,33.2,26.2,10.9,0003.8,0012.08,0008.89,0008.40
2023-01-08 02:32:00,,0829.8,5.00,0.00,24.4,23.1,00.0,33.2,26.3,10.8,0003.5,0012.40,0009.24,0008.74
2023-01-08 02:33:00,,0829.8,5.00,0.00,24.4,23.2,00.0,33.2,26.3,10.6,0003.6,0012.60,0009.42,0008.93
2023-01-08 02:34:00,,0829.9,5.00,0.00,24.4,23.2,00.0,33.3,26.3,10.5,0003.4,0012.65,0009.39,0008.93
2023-01-08 02:35:00,,0829.8,5.00,0.00,24.5,23.2,00.0,33.3,26.3,10.6,0003.4,0012.76,0009.33,0008.88
2023-01-08 02:36:00,,0829.9,5.00,0.00,24.5,23.2,00.0,33.3,26.4,11.1,0003.6,0013.55,0009.53,0009.03
2023-01-08 02:37:00,,0829.9,5.00,0.00,24.5,23.2,00.0,33.3,26.4,11.5,0003.8,0014.34,0010.02,0009.46
2023-01-08 02:38:00,,0829.9,5.00,0.00,24.5,23.2,00.0,33.3,26.4,11.0,0003.9,0014.47,0010.18,0009.64
2023-01-08 02:39:00,,0829.9,5.00,0.00,24.5,23.2,00.0,33.3,26.4,11.1,0003.8,0014.55,0010.31,0009.78
2023-01-08 02:40:00,,0830.0,5.00,0.00,24.6,23.3,00.0,33.3,26.4,11.6,0003.7,0015.25,0010.87,0010.32
2023-01-08 02:41:00,,0830.0,5.01,0.00,24.6,23.3,00.0,33.3,26.4,11.6,0003.2,0016.26,0011.54,0010.94
2023-01-08 02:42:00,,0829.9,5.01,0.00,24.6,23.3,00.0,33.3,26.4,11.0,0003.2,0016.78,0011.96,0011.31
2023-01-08 02:43:00,,0829.9,4.99,0.00,24.6,23.3,00.0,33.4,26.4,11.7,0003.5,0017.50,0012.60,0011.92
2023-01-08 02:44:00,,0829.9,4.99,0.00,24.6,23.4,00.0,33.4,26.4,12.0,0002.9,0018.54,0013.45,0012.75
2023-01-08 02:45:00,,0829.9,5.00,0.00,24.6,23.3,00.0,33.4,26.4,12.0,0002.8,0019.64,0014.33,0013.58
2023-01-08 02:46:00,,0829.9,4.99,0.00,24.6,23.3,00.0,33.4,26.4,12.1,0002.7,0020.44,0015.04,0014.24
2023-01-08 02:47:00,,0829.9,5.00,0.00,24.6,23.3,00.0,33.4,26.4,11.7,0002.5,0020.32,0015.46,0014.68
2023-01-08 02:48:00,,0829.8,5.01,0.00,24.6,23.3,00.0,33.4,26.4,11.7,0002.3,0019.93,0015.44,0014.70
2023-01-08 02:49:00,,0829.8,5.00,0.00,24.6,23.3,00.0,33.4,26.3,11.6,0002.0,0020.15,0015.69,0014.90
2023-01-08 02:50:00,,0829.8,5.00,0.00,24.6,23.2,00.0,33.4,26.4,11.2,0002.0,0020.38,0015.77,0014.98
2023-01-08 02:51:00,,0829.8,5.00,0.00,24.6,23.2,00.0,33.4,26.4,11.4,0002.4,0020.35,0015.58,0014.82
2023-01-08 02:52:00,,0829.9,5.01,0.00,24.6,23.2,00.0,33.4,26.4,11.6,0002.6,0020.30,0015.38,0014.65
2023-01-08 02:53:00,,0829.9,5.00,0.00,24.6,23.3,00.0,33.4,26.4,11.8,0002.8,0020.58,0015.49,0014.76
2023-01-08 02:54:00,,0829.9,5.00,0.00,24.6,23.3,00.0,33.4,26.5,11.8,0002.1,0020.66,0015.61,0014.91
2023-01-08 02:55:00,,0829.9,5.00,0.00,24.6,23.2,00.0,33.4,26.5,12.2,0002.3,0020.56,0015.54,0014.83
2023-01-08 02:56:00,,0829.9,5.00,0.00,24.6,23.3,00.0,33.4,26.5,12.5,0002.7,0020.23,0015.55,0014.83
2023-01-08 02:57:00,,0829.9,4.99,0.00,24.6,23.3,00.0,33.4,26.4,12.5,0002.9,0020.12,0015.55,0014.84
2023-01-08 02:58:00,,0829.9,5.00,0.00,24.6,23.3,00.0,33.4,26.4,12.5,0002.5,0020.03,0015.58,0014.88
2023-01-08 02:59:00,,0829.9,5.00,0.00,24.6,23.3,00.0,33.5,26.4,12.5,0002.6,0020.83,0015.87,0015.13
